User: anonymous
Location: Great Northern Moose Lodge
(44.6765°N, 71.1811°W)
Time: 03:04:30
(UTC-04:00)
Language:

Terra - Orbit

View from above orbital plane
View from above orbital plane
View from above satellite
View from above satellite

Ground track
Ground track

The orbit data is extracted from the following two-line orbital elements,

1 25994U 99068A   14108.84012501  .00000617  00000-0  14702-3 0  1551
2 25994 098.2144 184.3847 0001401 104.8673 255.2655 14.57128258762423
Epoch (UTC): 18 April 2014 20:09:46
Eccentricity: 0.0001401
inclination: 98.2144°
perigee height: 701 km
apogee height: 703 km
right ascension of ascending node: 184.3847°
argument of perigee: 104.8673°
revolutions per day: 14.57128258
mean anomaly at epoch: 255.2655°
orbit number at epoch: 76242

The dashed part of the orbit path shows where the satellite is in the earth's shadow,  

DLR